Year,Month,Day,Hour,Minute,Value (Times are PST for temperature in C)
2017,06,26,00,00,21.80
2017,06,26,00,01,21.80
2017,06,26,00,02,21.80
2017,06,26,00,03,21.80
2017,06,26,00,04,21.80
2017,06,26,00,05,21.70
2017,06,26,00,06,21.70
2017,06,26,00,07,21.70
2017,06,26,00,08,21.60
2017,06,26,00,09,21.60
2017,06,26,00,10,21.60
2017,06,26,00,11,21.50
2017,06,26,00,12,21.50
2017,06,26,00,13,21.40
2017,06,26,00,14,21.30
2017,06,26,00,15,21.20
2017,06,26,00,16,21.20
2017,06,26,00,17,21.10
2017,06,26,00,18,21.10
2017,06,26,00,19,21.10
2017,06,26,00,20,21.00
2017,06,26,00,21,21.00
2017,06,26,00,22,20.90
2017,06,26,00,23,20.90
2017,06,26,00,24,20.90
2017,06,26,00,25,20.80
2017,06,26,00,26,20.80
2017,06,26,00,27,20.80
2017,06,26,00,28,20.70
2017,06,26,00,29,20.70
2017,06,26,00,30,20.70
2017,06,26,00,31,20.60
2017,06,26,00,32,20.50
2017,06,26,00,33,20.50
2017,06,26,00,34,20.40
2017,06,26,00,35,20.40
2017,06,26,00,36,20.30
2017,06,26,00,37,20.30
2017,06,26,00,38,20.30
2017,06,26,00,39,20.20
2017,06,26,00,40,20.20
2017,06,26,00,41,20.10
2017,06,26,00,42,20.00
2017,06,26,00,43,20.00
2017,06,26,00,44,19.90
2017,06,26,00,45,19.90
2017,06,26,00,46,19.80
2017,06,26,00,47,19.80
2017,06,26,00,48,19.80
2017,06,26,00,49,19.80
2017,06,26,00,50,19.80
2017,06,26,00,51,19.80
2017,06,26,00,52,19.80
2017,06,26,00,53,19.80
2017,06,26,00,54,19.80
2017,06,26,00,55,19.80
2017,06,26,00,56,19.80
2017,06,26,00,57,19.80
2017,06,26,00,58,19.80
2017,06,26,00,59,19.80
2017,06,26,01,00,19.80
2017,06,26,01,01,19.70
2017,06,26,01,02,19.70
2017,06,26,01,03,19.70
2017,06,26,01,04,19.70
2017,06,26,01,05,19.70
2017,06,26,01,06,19.70
2017,06,26,01,07,19.60
2017,06,26,01,08,19.60
2017,06,26,01,09,19.60
2017,06,26,01,10,19.60
2017,06,26,01,11,19.50
2017,06,26,01,12,19.50
2017,06,26,01,13,19.50
2017,06,26,01,14,19.50
2017,06,26,01,15,19.50
2017,06,26,01,16,19.50
2017,06,26,01,17,19.40
2017,06,26,01,18,19.40
2017,06,26,01,19,19.40
2017,06,26,01,20,19.40
2017,06,26,01,21,19.40
2017,06,26,01,22,19.40
2017,06,26,01,23,19.40
2017,06,26,01,24,19.30
2017,06,26,01,25,19.30
2017,06,26,01,26,19.30
2017,06,26,01,27,19.30
2017,06,26,01,28,19.30
2017,06,26,01,29,19.30
2017,06,26,01,30,19.30
2017,06,26,01,31,19.30
2017,06,26,01,32,19.20
2017,06,26,01,33,19.20
2017,06,26,01,34,19.20
2017,06,26,01,35,19.20
2017,06,26,01,36,19.10
2017,06,26,01,37,19.10
2017,06,26,01,38,19.10
2017,06,26,01,39,19.10
2017,06,26,01,40,19.10
2017,06,26,01,41,19.10
2017,06,26,01,42,19.10
2017,06,26,01,43,19.10
2017,06,26,01,44,19.10
2017,06,26,01,45,19.10
2017,06,26,01,46,19.10
2017,06,26,01,47,19.10
2017,06,26,01,48,19.00
2017,06,26,01,49,19.00
2017,06,26,01,50,19.00
2017,06,26,01,51,19.00
2017,06,26,01,52,19.00
2017,06,26,01,53,19.00
2017,06,26,01,54,19.00
2017,06,26,01,55,19.00
2017,06,26,01,56,19.00
2017,06,26,01,57,19.10
2017,06,26,01,58,19.10
2017,06,26,01,59,19.10
2017,06,26,02,00,19.10
2017,06,26,02,01,19.10
2017,06,26,02,02,19.10
2017,06,26,02,03,19.00
2017,06,26,02,04,19.00
2017,06,26,02,05,19.00
2017,06,26,02,06,19.00
2017,06,26,02,07,18.90
2017,06,26,02,08,18.90
2017,06,26,02,09,18.90
2017,06,26,02,10,18.90
2017,06,26,02,11,18.90
2017,06,26,02,12,18.90
2017,06,26,02,13,18.80
2017,06,26,02,14,18.80
2017,06,26,02,15,18.80
2017,06,26,02,16,18.80
2017,06,26,02,17,18.70
2017,06,26,02,18,18.70
2017,06,26,02,19,18.70
2017,06,26,02,20,18.70
2017,06,26,02,21,18.70
2017,06,26,02,22,18.70
2017,06,26,02,23,18.70
2017,06,26,02,24,18.60
2017,06,26,02,25,18.60
2017,06,26,02,26,18.60
2017,06,26,02,27,18.60
2017,06,26,02,28,18.60
2017,06,26,02,29,18.60
2017,06,26,02,30,18.60
2017,06,26,02,31,18.60
2017,06,26,02,32,18.60
2017,06,26,02,33,18.60
2017,06,26,02,34,18.60
2017,06,26,02,35,18.60
2017,06,26,02,36,18.50
2017,06,26,02,37,18.50
2017,06,26,02,38,18.50
2017,06,26,02,39,18.50
2017,06,26,02,40,18.50
2017,06,26,02,41,18.40
2017,06,26,02,42,18.40
2017,06,26,02,43,18.30
2017,06,26,02,44,18.30
2017,06,26,02,45,18.30
2017,06,26,02,46,18.20
2017,06,26,02,47,18.20
2017,06,26,02,48,18.10
2017,06,26,02,49,18.10
2017,06,26,02,50,18.00
2017,06,26,02,51,18.00
2017,06,26,02,52,17.90
2017,06,26,02,53,17.90
2017,06,26,02,54,17.80
2017,06,26,02,55,17.80
2017,06,26,02,56,17.80
2017,06,26,02,57,17.80
2017,06,26,02,58,17.80
2017,06,26,02,59,17.80
2017,06,26,03,00,17.80
2017,06,26,03,01,17.80
2017,06,26,03,02,17.80
2017,06,26,03,03,17.70
2017,06,26,03,04,17.70
2017,06,26,03,05,17.70
2017,06,26,03,06,17.70
2017,06,26,03,07,17.70
2017,06,26,03,08,17.70
2017,06,26,03,09,17.60
2017,06,26,03,10,17.60
2017,06,26,03,11,17.60
2017,06,26,03,12,17.60
2017,06,26,03,13,17.50
2017,06,26,03,14,17.50
2017,06,26,03,15,17.50
2017,06,26,03,16,17.40
2017,06,26,03,17,17.40
2017,06,26,03,18,17.40
2017,06,26,03,19,17.40
2017,06,26,03,20,17.40
2017,06,26,03,21,17.40
2017,06,26,03,22,17.40
2017,06,26,03,23,17.40
2017,06,26,03,24,17.30
2017,06,26,03,25,17.30
2017,06,26,03,26,17.30
2017,06,26,03,27,17.30
2017,06,26,03,28,17.30
2017,06,26,03,29,17.30
2017,06,26,03,30,17.30
2017,06,26,03,31,17.30
2017,06,26,03,32,17.20
2017,06,26,03,33,17.20
2017,06,26,03,34,17.20
2017,06,26,03,35,17.20
2017,06,26,03,36,17.20
2017,06,26,03,37,17.10
2017,06,26,03,38,17.10
2017,06,26,03,39,17.10
2017,06,26,03,40,17.10
2017,06,26,03,41,17.10
2017,06,26,03,42,17.10
2017,06,26,03,43,17.10
2017,06,26,03,44,17.00
2017,06,26,03,45,17.00
2017,06,26,03,46,17.00
2017,06,26,03,47,16.90
2017,06,26,03,48,16.90
2017,06,26,03,49,16.90
2017,06,26,03,50,16.90
2017,06,26,03,51,16.90
2017,06,26,03,52,16.90
2017,06,26,03,53,16.90
2017,06,26,03,54,16.80
2017,06,26,03,55,16.80
2017,06,26,03,56,16.80
2017,06,26,03,57,16.80
2017,06,26,03,58,16.80
2017,06,26,03,59,16.80
2017,06,26,04,00,16.80
2017,06,26,04,01,16.80
2017,06,26,04,02,16.80
2017,06,26,04,03,16.70
2017,06,26,04,04,16.70
2017,06,26,04,05,16.70
2017,06,26,04,06,16.70
2017,06,26,04,07,16.70
2017,06,26,04,08,16.70
2017,06,26,04,09,16.70
2017,06,26,04,10,16.70
2017,06,26,04,11,16.70
2017,06,26,04,12,16.70
2017,06,26,04,13,16.70
2017,06,26,04,14,16.70
2017,06,26,04,15,16.70
2017,06,26,04,16,16.70
2017,06,26,04,17,16.60
2017,06,26,04,18,16.60
2017,06,26,04,19,16.60
2017,06,26,04,20,16.60
2017,06,26,04,21,16.60
2017,06,26,04,22,16.60
2017,06,26,04,23,16.60
2017,06,26,04,24,16.60
2017,06,26,04,25,16.60
2017,06,26,04,26,16.60
2017,06,26,04,27,16.60
2017,06,26,04,28,16.60
2017,06,26,04,29,16.60
2017,06,26,04,30,16.60
2017,06,26,04,31,16.50
2017,06,26,04,32,16.50
2017,06,26,04,33,16.50
2017,06,26,04,34,16.50
2017,06,26,04,35,16.50
2017,06,26,04,36,16.40
2017,06,26,04,37,16.40
2017,06,26,04,38,16.40
2017,06,26,04,39,16.40
2017,06,26,04,40,16.40
2017,06,26,04,41,16.30
2017,06,26,04,42,16.30
2017,06,26,04,43,16.30
2017,06,26,04,44,16.30
2017,06,26,04,45,16.20
2017,06,26,04,46,16.20
2017,06,26,04,47,16.20
2017,06,26,04,48,16.20
2017,06,26,04,49,16.20
2017,06,26,04,50,16.20
2017,06,26,04,51,16.20
2017,06,26,04,52,16.20
2017,06,26,04,53,16.20
2017,06,26,04,54,16.10
2017,06,26,04,55,16.10
2017,06,26,04,56,16.10
2017,06,26,04,57,16.10
2017,06,26,04,58,16.10
2017,06,26,04,59,16.10
2017,06,26,05,00,16.10
2017,06,26,05,01,16.10
2017,06,26,05,02,16.10
2017,06,26,05,03,16.00
2017,06,26,05,04,16.00
2017,06,26,05,05,16.00
2017,06,26,05,06,16.00
2017,06,26,05,07,15.90
2017,06,26,05,08,15.90
2017,06,26,05,09,15.90
2017,06,26,05,10,15.90
2017,06,26,05,11,15.80
2017,06,26,05,12,15.80
2017,06,26,05,13,15.80
2017,06,26,05,14,15.70
2017,06,26,05,15,15.70
2017,06,26,05,16,15.70
2017,06,26,05,17,15.70
2017,06,26,05,18,15.70
2017,06,26,05,19,15.60
2017,06,26,05,20,15.60
2017,06,26,05,21,15.60
2017,06,26,05,22,15.60
2017,06,26,05,23,15.60
2017,06,26,05,24,15.50
2017,06,26,05,25,15.50
2017,06,26,05,26,15.50
2017,06,26,05,27,15.50
2017,06,26,05,28,15.50
2017,06,26,05,29,15.50
2017,06,26,05,30,15.40
2017,06,26,05,31,15.40
2017,06,26,05,32,15.40
2017,06,26,05,33,15.40
2017,06,26,05,34,15.40
2017,06,26,05,35,15.30
2017,06,26,05,36,15.30
2017,06,26,05,37,15.30
2017,06,26,05,38,15.30
2017,06,26,05,39,15.30
2017,06,26,05,40,15.20
2017,06,26,05,41,15.20
2017,06,26,05,42,15.20
2017,06,26,05,43,15.20
2017,06,26,05,44,15.20
2017,06,26,05,45,15.20
2017,06,26,05,46,15.20
2017,06,26,05,47,15.20
2017,06,26,05,48,15.20
2017,06,26,05,49,15.20
2017,06,26,05,50,15.20
2017,06,26,05,51,15.20
2017,06,26,05,52,15.10
2017,06,26,05,53,15.10
2017,06,26,05,54,15.10
2017,06,26,05,55,15.10
2017,06,26,05,56,15.00
2017,06,26,05,57,15.00
2017,06,26,05,58,15.00
2017,06,26,05,59,15.00
2017,06,26,06,00,15.00
2017,06,26,06,01,15.00
2017,06,26,06,02,15.00
2017,06,26,06,03,15.00
2017,06,26,06,04,15.00
2017,06,26,06,05,15.00
2017,06,26,06,06,15.00
2017,06,26,06,07,15.00
2017,06,26,06,08,15.00
2017,06,26,06,09,15.00
2017,06,26,06,10,15.00
2017,06,26,06,11,15.00
2017,06,26,06,12,15.00
2017,06,26,06,13,15.00
2017,06,26,06,14,15.00
2017,06,26,06,15,15.00
2017,06,26,06,16,15.00
2017,06,26,06,17,15.00
2017,06,26,06,18,15.00
2017,06,26,06,19,15.00
2017,06,26,06,20,15.00
2017,06,26,06,21,15.00
2017,06,26,06,22,15.00
2017,06,26,06,23,15.00
2017,06,26,06,24,15.00
2017,06,26,06,25,15.00
2017,06,26,06,26,15.00
2017,06,26,06,27,15.00
2017,06,26,06,28,15.00
2017,06,26,06,29,15.00
2017,06,26,06,30,15.00
2017,06,26,06,31,15.00
2017,06,26,06,32,15.00
2017,06,26,06,33,15.00
2017,06,26,06,34,15.00
2017,06,26,06,35,15.00
2017,06,26,06,36,15.00
2017,06,26,06,37,15.00
2017,06,26,06,38,15.00
2017,06,26,06,39,14.90
2017,06,26,06,40,14.90
2017,06,26,06,41,14.90
2017,06,26,06,42,14.90
2017,06,26,06,43,14.90
2017,06,26,06,44,14.90
2017,06,26,06,45,14.80
2017,06,26,06,46,14.80
2017,06,26,06,47,14.80
2017,06,26,06,48,14.80
2017,06,26,06,49,14.80
2017,06,26,06,50,14.80
2017,06,26,06,51,14.80
2017,06,26,06,52,14.80
2017,06,26,06,53,14.80
2017,06,26,06,54,14.80
2017,06,26,06,55,14.80
2017,06,26,06,56,14.80
2017,06,26,06,57,14.80
2017,06,26,06,58,14.80
2017,06,26,06,59,14.80
2017,06,26,07,00,14.80
2017,06,26,07,01,14.80
2017,06,26,07,02,14.70
2017,06,26,07,03,14.70
2017,06,26,07,04,14.70
2017,06,26,07,05,14.70
2017,06,26,07,06,14.70
2017,06,26,07,07,14.70
2017,06,26,07,08,14.70
2017,06,26,07,09,14.70
2017,06,26,07,10,14.70
2017,06,26,07,11,14.70
2017,06,26,07,12,14.70
2017,06,26,07,13,14.70
2017,06,26,07,14,14.70
2017,06,26,07,15,14.70
2017,06,26,07,16,14.70
2017,06,26,07,17,14.70
2017,06,26,07,18,14.70
2017,06,26,07,19,14.70
2017,06,26,07,20,14.70
2017,06,26,07,21,14.70
2017,06,26,07,22,14.70
2017,06,26,07,23,14.70
2017,06,26,07,24,14.70
2017,06,26,07,25,14.70
2017,06,26,07,26,14.70
2017,06,26,07,27,14.70
2017,06,26,07,28,14.70
2017,06,26,07,29,14.70
2017,06,26,07,30,14.70
2017,06,26,07,31,14.70
2017,06,26,07,32,14.70
2017,06,26,07,33,14.70
2017,06,26,07,34,14.70
2017,06,26,07,35,14.70
2017,06,26,07,36,14.70
2017,06,26,07,37,14.70
2017,06,26,07,38,14.70
2017,06,26,07,39,14.70
2017,06,26,07,40,14.70
2017,06,26,07,41,14.70
2017,06,26,07,42,14.70
2017,06,26,07,43,14.70
2017,06,26,07,44,14.70
2017,06,26,07,45,14.70
2017,06,26,07,46,14.70
2017,06,26,07,47,14.70
2017,06,26,07,48,14.70
2017,06,26,07,49,14.70
2017,06,26,07,50,14.70
2017,06,26,07,51,14.70
2017,06,26,07,52,14.70
2017,06,26,07,53,14.80
2017,06,26,07,54,14.80
2017,06,26,07,55,14.80
2017,06,26,07,56,14.80
2017,06,26,07,57,14.80
2017,06,26,07,58,14.80
2017,06,26,07,59,14.80
2017,06,26,08,00,14.80
2017,06,26,08,01,14.90
2017,06,26,08,02,14.90
2017,06,26,08,03,14.90
2017,06,26,08,04,14.90
2017,06,26,08,05,14.90
2017,06,26,08,06,15.00
2017,06,26,08,07,15.00
2017,06,26,08,08,15.00
2017,06,26,08,09,15.00
2017,06,26,08,10,15.00
2017,06,26,08,11,15.00
2017,06,26,08,12,15.00
2017,06,26,08,13,15.00
2017,06,26,08,14,15.00
2017,06,26,08,15,15.00
2017,06,26,08,16,15.00
2017,06,26,08,17,15.00
2017,06,26,08,18,15.00
2017,06,26,08,19,15.00
2017,06,26,08,20,15.00
2017,06,26,08,21,15.00
2017,06,26,08,22,15.00
2017,06,26,08,23,15.00
2017,06,26,08,24,15.00
2017,06,26,08,25,15.00
2017,06,26,08,26,15.00
2017,06,26,08,27,15.00
2017,06,26,08,28,15.00
2017,06,26,08,29,15.00
2017,06,26,08,30,15.00
2017,06,26,08,31,15.00
2017,06,26,08,32,15.00
2017,06,26,08,33,15.00
2017,06,26,08,34,15.00
2017,06,26,08,35,15.00
2017,06,26,08,36,15.00
2017,06,26,08,37,15.00
2017,06,26,08,38,15.00
2017,06,26,08,39,15.00
2017,06,26,08,40,15.00
2017,06,26,08,41,15.00
2017,06,26,08,42,14.90
2017,06,26,08,43,14.90
2017,06,26,08,44,14.90
2017,06,26,08,45,14.90
2017,06,26,08,46,15.00
2017,06,26,08,47,15.00
2017,06,26,08,48,15.00
2017,06,26,08,49,15.00
2017,06,26,08,50,15.00
2017,06,26,08,51,15.00
2017,06,26,08,52,14.90
2017,06,26,08,53,14.90
2017,06,26,08,54,14.90
2017,06,26,08,55,14.90
2017,06,26,08,56,14.80
2017,06,26,08,57,14.80
2017,06,26,08,58,14.80
2017,06,26,08,59,14.80
2017,06,26,09,00,14.80
2017,06,26,09,01,14.80
2017,06,26,09,02,14.90
2017,06,26,09,03,14.90
2017,06,26,09,04,14.90
2017,06,26,09,05,15.00
2017,06,26,09,06,15.00
2017,06,26,09,07,15.00
2017,06,26,09,08,15.00
2017,06,26,09,09,15.00
2017,06,26,09,10,15.00
2017,06,26,09,11,15.00
2017,06,26,09,12,15.00
2017,06,26,09,13,15.00
2017,06,26,09,14,15.00
2017,06,26,09,15,15.00
2017,06,26,09,16,15.10
2017,06,26,09,17,15.20
2017,06,26,09,18,15.10
2017,06,26,09,19,15.10
2017,06,26,09,20,15.20
2017,06,26,09,21,15.20
2017,06,26,09,22,15.30
2017,06,26,09,23,15.30
2017,06,26,09,24,15.40
2017,06,26,09,25,15.40
2017,06,26,09,26,15.50
2017,06,26,09,27,15.60
2017,06,26,09,28,15.60
2017,06,26,09,29,15.70
2017,06,26,09,30,15.80
2017,06,26,09,31,15.80
2017,06,26,09,32,15.80
2017,06,26,09,33,15.80
2017,06,26,09,34,15.90
2017,06,26,09,35,16.10
2017,06,26,09,36,16.00
2017,06,26,09,37,16.00
2017,06,26,09,38,16.00
2017,06,26,09,39,16.00
2017,06,26,09,40,16.00
2017,06,26,09,41,16.00
2017,06,26,09,42,16.10
2017,06,26,09,43,16.20
2017,06,26,09,44,16.30
2017,06,26,09,45,16.30
2017,06,26,09,46,16.40
2017,06,26,09,47,16.50
2017,06,26,09,48,16.50
2017,06,26,09,49,16.60
2017,06,26,09,50,16.50
2017,06,26,09,51,16.40
2017,06,26,09,52,16.40
2017,06,26,09,53,16.50
2017,06,26,09,54,16.60
2017,06,26,09,55,16.60
2017,06,26,09,56,16.60
2017,06,26,09,57,16.60
2017,06,26,09,58,16.70
2017,06,26,09,59,16.70
2017,06,26,10,00,16.80
2017,06,26,10,01,16.80
2017,06,26,10,02,16.80
2017,06,26,10,03,16.90
2017,06,26,10,04,17.00
2017,06,26,10,05,17.10
2017,06,26,10,06,17.20
2017,06,26,10,07,17.20
2017,06,26,10,08,17.20
2017,06,26,10,09,17.20
2017,06,26,10,10,17.10
2017,06,26,10,11,17.10
2017,06,26,10,12,17.10
2017,06,26,10,13,17.10
2017,06,26,10,14,17.10
2017,06,26,10,15,17.10
2017,06,26,10,16,17.00
2017,06,26,10,17,17.00
2017,06,26,10,18,16.90
2017,06,26,10,19,16.80
2017,06,26,10,20,16.70
2017,06,26,10,21,16.60
2017,06,26,10,22,16.50
2017,06,26,10,23,16.40
2017,06,26,10,24,16.40
2017,06,26,10,25,16.40
2017,06,26,10,26,16.40
2017,06,26,10,27,16.40
2017,06,26,10,28,16.50
2017,06,26,10,29,16.60
2017,06,26,10,30,16.60
2017,06,26,10,31,16.60
2017,06,26,10,32,16.70
2017,06,26,10,33,16.70
2017,06,26,10,34,16.70
2017,06,26,10,35,16.70
2017,06,26,10,36,16.80
2017,06,26,10,37,16.90
2017,06,26,10,38,16.80
2017,06,26,10,39,16.70
2017,06,26,10,40,16.60
2017,06,26,10,41,16.50
2017,06,26,10,42,16.50
2017,06,26,10,43,16.50
2017,06,26,10,44,16.50
2017,06,26,10,45,16.50
2017,06,26,10,46,16.60
2017,06,26,10,47,16.70
2017,06,26,10,48,16.70
2017,06,26,10,49,16.70
2017,06,26,10,50,16.80
2017,06,26,10,51,16.80
2017,06,26,10,52,16.90
2017,06,26,10,53,17.00
2017,06,26,10,54,17.20
2017,06,26,10,55,17.30
2017,06,26,10,56,17.30
2017,06,26,10,57,17.10
2017,06,26,10,58,17.10
2017,06,26,10,59,17.00
2017,06,26,11,00,17.00
2017,06,26,11,01,17.10
2017,06,26,11,02,17.10
2017,06,26,11,03,17.10
2017,06,26,11,04,17.20
2017,06,26,11,05,17.30
2017,06,26,11,06,17.40
2017,06,26,11,07,17.50
2017,06,26,11,08,17.60
2017,06,26,11,09,17.60
2017,06,26,11,10,17.60
2017,06,26,11,11,17.60
2017,06,26,11,12,17.50
2017,06,26,11,13,17.20
2017,06,26,11,14,17.20
2017,06,26,11,15,17.20
2017,06,26,11,16,17.20
2017,06,26,11,17,17.40
2017,06,26,11,18,17.50
2017,06,26,11,19,17.60
2017,06,26,11,20,17.70
2017,06,26,11,21,17.80
2017,06,26,11,22,17.70
2017,06,26,11,23,17.50
2017,06,26,11,24,17.40
2017,06,26,11,25,17.30
2017,06,26,11,26,17.30
2017,06,26,11,27,17.30
2017,06,26,11,28,17.30
2017,06,26,11,29,17.30
2017,06,26,11,30,17.30
2017,06,26,11,31,17.30
2017,06,26,11,32,17.20
2017,06,26,11,33,17.20
2017,06,26,11,34,17.30
2017,06,26,11,35,17.50
2017,06,26,11,36,17.50
2017,06,26,11,37,17.40
2017,06,26,11,38,17.30
2017,06,26,11,39,17.30
2017,06,26,11,40,17.30
2017,06,26,11,41,17.40
2017,06,26,11,42,17.60
2017,06,26,11,43,17.60
2017,06,26,11,44,17.50
2017,06,26,11,45,17.60
2017,06,26,11,46,17.70
2017,06,26,11,47,17.70
2017,06,26,11,48,17.80
2017,06,26,11,49,17.80
2017,06,26,11,50,17.80
2017,06,26,11,51,17.90
2017,06,26,11,52,18.00
2017,06,26,11,53,18.00
2017,06,26,11,54,18.10
2017,06,26,11,55,18.10
2017,06,26,11,56,18.10
2017,06,26,11,57,18.20
2017,06,26,11,58,18.20
2017,06,26,11,59,18.20
2017,06,26,12,00,18.30
2017,06,26,12,01,18.40
2017,06,26,12,02,18.40
2017,06,26,12,03,18.40
2017,06,26,12,04,18.20
2017,06,26,12,05,18.10
2017,06,26,12,06,18.10
2017,06,26,12,07,18.10
2017,06,26,12,08,18.00
2017,06,26,12,09,18.00
2017,06,26,12,10,18.00
2017,06,26,12,11,18.00
2017,06,26,12,12,18.10
2017,06,26,12,13,18.20
2017,06,26,12,14,18.20
2017,06,26,12,15,18.20
2017,06,26,12,16,18.30
2017,06,26,12,17,18.30
2017,06,26,12,18,18.40
2017,06,26,12,19,18.50
2017,06,26,12,20,18.50
2017,06,26,12,21,18.50
2017,06,26,12,22,18.60
2017,06,26,12,23,18.50
2017,06,26,12,24,18.40
2017,06,26,12,25,18.30
2017,06,26,12,26,18.30
2017,06,26,12,27,18.40
2017,06,26,12,28,18.50
2017,06,26,12,29,18.60
2017,06,26,12,30,18.80
2017,06,26,12,31,18.80
2017,06,26,12,32,18.80
2017,06,26,12,33,18.80
2017,06,26,12,34,18.80
2017,06,26,12,35,18.70
2017,06,26,12,36,18.70
2017,06,26,12,37,18.70
2017,06,26,12,38,18.80
2017,06,26,12,39,18.90
2017,06,26,12,40,18.90
2017,06,26,12,41,18.90
2017,06,26,12,42,18.90
2017,06,26,12,43,18.90
2017,06,26,12,44,18.80
2017,06,26,12,45,18.70
2017,06,26,12,46,18.80
2017,06,26,12,47,18.90
2017,06,26,12,48,19.00
2017,06,26,12,49,18.90
2017,06,26,12,50,18.90
2017,06,26,12,51,18.80
2017,06,26,12,52,18.80
2017,06,26,12,53,18.80
2017,06,26,12,54,18.80
2017,06,26,12,55,18.80
2017,06,26,12,56,18.80
2017,06,26,12,57,18.90
2017,06,26,12,58,19.10
2017,06,26,12,59,19.30
2017,06,26,13,00,19.50
2017,06,26,13,01,19.50
2017,06,26,13,02,19.50
2017,06,26,13,03,19.60
2017,06,26,13,04,19.70
2017,06,26,13,05,19.70
2017,06,26,13,06,19.60
2017,06,26,13,07,19.60
2017,06,26,13,08,19.60
2017,06,26,13,09,19.60
2017,06,26,13,10,19.70
2017,06,26,13,11,19.70
2017,06,26,13,12,19.70
2017,06,26,13,13,19.80
2017,06,26,13,14,19.90
2017,06,26,13,15,19.90
2017,06,26,13,16,19.90
2017,06,26,13,17,19.90
2017,06,26,13,18,19.90
2017,06,26,13,19,20.00
2017,06,26,13,20,20.10
2017,06,26,13,21,20.10
2017,06,26,13,22,20.20
2017,06,26,13,23,20.20
2017,06,26,13,24,20.30
2017,06,26,13,25,20.20
2017,06,26,13,26,20.20
2017,06,26,13,27,20.30
2017,06,26,13,28,20.40
2017,06,26,13,29,20.40
2017,06,26,13,30,20.40
2017,06,26,13,31,20.40
2017,06,26,13,32,20.40
2017,06,26,13,33,20.40
2017,06,26,13,34,20.40
2017,06,26,13,35,20.30
2017,06,26,13,36,20.30
2017,06,26,13,37,20.30
2017,06,26,13,38,20.30
2017,06,26,13,39,20.30
2017,06,26,13,40,20.30
2017,06,26,13,41,20.40
2017,06,26,13,42,20.40
2017,06,26,13,43,20.40
2017,06,26,13,44,20.50
2017,06,26,13,45,20.60
2017,06,26,13,46,20.70
2017,06,26,13,47,20.60
2017,06,26,13,48,20.40
2017,06,26,13,49,20.40
2017,06,26,13,50,20.50
2017,06,26,13,51,20.50
2017,06,26,13,52,20.40
2017,06,26,13,53,20.30
2017,06,26,13,54,20.30
2017,06,26,13,55,20.30
2017,06,26,13,56,20.30
2017,06,26,13,57,20.20
2017,06,26,13,58,20.20
2017,06,26,13,59,20.30
2017,06,26,14,00,20.30
2017,06,26,14,01,20.30
2017,06,26,14,02,20.30
2017,06,26,14,03,20.40
2017,06,26,14,04,20.40
2017,06,26,14,05,20.30
2017,06,26,14,06,20.10
2017,06,26,14,07,20.10
2017,06,26,14,08,20.10
2017,06,26,14,09,20.20
2017,06,26,14,10,20.30
2017,06,26,14,11,20.30
2017,06,26,14,12,20.40
2017,06,26,14,13,20.60
2017,06,26,14,14,20.70
2017,06,26,14,15,20.80
2017,06,26,14,16,20.70
2017,06,26,14,17,20.70
2017,06,26,14,18,20.80
2017,06,26,14,19,20.90
2017,06,26,14,20,20.90
2017,06,26,14,21,20.90
2017,06,26,14,22,21.00
2017,06,26,14,23,21.00
2017,06,26,14,24,21.00
2017,06,26,14,25,21.10
2017,06,26,14,26,21.10
2017,06,26,14,27,21.10
2017,06,26,14,28,21.10
2017,06,26,14,29,21.00
2017,06,26,14,30,21.00
2017,06,26,14,31,21.00
2017,06,26,14,32,21.10
2017,06,26,14,33,21.10
2017,06,26,14,34,21.30
2017,06,26,14,35,21.40
2017,06,26,14,36,21.50
2017,06,26,14,37,21.50
2017,06,26,14,38,21.40
2017,06,26,14,39,21.40
2017,06,26,14,40,21.40
2017,06,26,14,41,21.50
2017,06,26,14,42,21.40
2017,06,26,14,43,21.50
2017,06,26,14,44,21.50
2017,06,26,14,45,21.60
2017,06,26,14,46,21.50
2017,06,26,14,47,21.50
2017,06,26,14,48,21.40
2017,06,26,14,49,21.40
2017,06,26,14,50,21.30
2017,06,26,14,51,21.30
2017,06,26,14,52,21.30
2017,06,26,14,53,21.20
2017,06,26,14,54,21.20
2017,06,26,14,55,21.10
2017,06,26,14,56,21.00
2017,06,26,14,57,21.00
2017,06,26,14,58,21.10
2017,06,26,14,59,21.00
2017,06,26,15,00,20.80
2017,06,26,15,01,20.80
2017,06,26,15,02,21.00
2017,06,26,15,03,21.10
2017,06,26,15,04,21.10
2017,06,26,15,05,21.10
2017,06,26,15,06,21.10
2017,06,26,15,07,21.30
2017,06,26,15,08,21.50
2017,06,26,15,09,21.70
2017,06,26,15,10,21.70
2017,06,26,15,11,21.50
2017,06,26,15,12,21.40
2017,06,26,15,13,21.40
2017,06,26,15,14,21.50
2017,06,26,15,15,21.60
2017,06,26,15,16,21.70
2017,06,26,15,17,21.80
2017,06,26,15,18,21.90
2017,06,26,15,19,22.00
2017,06,26,15,20,22.00
2017,06,26,15,21,22.00
2017,06,26,15,22,22.00
2017,06,26,15,23,22.00
2017,06,26,15,24,21.90
2017,06,26,15,25,21.90
2017,06,26,15,26,21.90
2017,06,26,15,27,21.80
2017,06,26,15,28,21.80
2017,06,26,15,29,21.90
2017,06,26,15,30,21.90
2017,06,26,15,31,21.90
2017,06,26,15,32,22.00
2017,06,26,15,33,22.10
2017,06,26,15,34,22.10
2017,06,26,15,35,22.20
2017,06,26,15,36,22.20
2017,06,26,15,37,22.10
2017,06,26,15,38,22.10
2017,06,26,15,39,22.20
2017,06,26,15,40,22.10
2017,06,26,15,41,22.00
2017,06,26,15,42,21.90
2017,06,26,15,43,22.00
2017,06,26,15,44,22.00
2017,06,26,15,45,22.00
2017,06,26,15,46,21.80
2017,06,26,15,47,21.80
2017,06,26,15,48,21.90
2017,06,26,15,49,21.90
2017,06,26,15,50,21.90
2017,06,26,15,51,21.80
2017,06,26,15,52,21.90
2017,06,26,15,53,22.00
2017,06,26,15,54,22.10
2017,06,26,15,55,22.20
2017,06,26,15,56,22.30
2017,06,26,15,57,22.30
2017,06,26,15,58,22.30
2017,06,26,15,59,22.30
2017,06,26,16,00,22.30
2017,06,26,16,01,22.30
2017,06,26,16,02,22.30
2017,06,26,16,03,22.40
2017,06,26,16,04,22.40
2017,06,26,16,05,22.40
2017,06,26,16,06,22.50
2017,06,26,16,07,22.60
2017,06,26,16,08,22.50
2017,06,26,16,09,22.50
2017,06,26,16,10,22.50
2017,06,26,16,11,22.50
2017,06,26,16,12,22.40
2017,06,26,16,13,22.50
2017,06,26,16,14,22.60
2017,06,26,16,15,22.60
2017,06,26,16,16,22.70
2017,06,26,16,17,22.60
2017,06,26,16,18,22.60
2017,06,26,16,19,22.70
2017,06,26,16,20,22.70
2017,06,26,16,21,22.80
2017,06,26,16,22,22.80
2017,06,26,16,23,22.80
2017,06,26,16,24,22.90
2017,06,26,16,25,23.00
2017,06,26,16,26,23.10
2017,06,26,16,27,23.20
2017,06,26,16,28,23.10
2017,06,26,16,29,23.10
2017,06,26,16,30,22.90
2017,06,26,16,31,22.70
2017,06,26,16,32,22.50
2017,06,26,16,33,22.50
2017,06,26,16,34,22.40
2017,06,26,16,35,22.40
2017,06,26,16,36,22.50
2017,06,26,16,37,22.60
2017,06,26,16,38,22.60
2017,06,26,16,39,22.60
2017,06,26,16,40,22.50
2017,06,26,16,41,22.50
2017,06,26,16,42,22.50
2017,06,26,16,43,22.50
2017,06,26,16,44,22.60
2017,06,26,16,45,22.60
2017,06,26,16,46,22.60
2017,06,26,16,47,22.60
2017,06,26,16,48,22.60
2017,06,26,16,49,22.60
2017,06,26,16,50,22.60
2017,06,26,16,51,22.70
2017,06,26,16,52,22.60
2017,06,26,16,53,22.60
2017,06,26,16,54,22.60
2017,06,26,16,55,22.60
2017,06,26,16,56,22.60
2017,06,26,16,57,22.50
2017,06,26,16,58,22.40
2017,06,26,16,59,22.30
2017,06,26,17,00,22.10
2017,06,26,17,01,22.10
2017,06,26,17,02,22.10
2017,06,26,17,03,22.20
2017,06,26,17,04,22.30
2017,06,26,17,05,22.30
2017,06,26,17,06,22.20
2017,06,26,17,07,22.10
2017,06,26,17,08,22.20
2017,06,26,17,09,22.20
2017,06,26,17,10,22.20
2017,06,26,17,11,22.20
2017,06,26,17,12,22.20
2017,06,26,17,13,22.20
2017,06,26,17,14,22.10
2017,06,26,17,15,21.90
2017,06,26,17,16,21.80
2017,06,26,17,17,21.80
2017,06,26,17,18,21.80
2017,06,26,17,19,21.80